Leadville, CO

2:05 PM MST on February 22, 2018 (GMT -0700)
Lake County

Weather History for KLXV - February, 2013

Change the Weather History Date:

Friday, February 15, 2013

  Actual Average Record
Temperature  
Mean Temperature 11 °F -  
Max Temperature 18 °F 31 °F 47 °F (2011)
Min Temperature 3 °F 5 °F -10 °F (1990)
Degree Days  
Heating Degree Days 54 47  
Month to date heating degree days 745 716  
Since 1 July heating degree days 6835 7113  
Cooling Degree Days 0 0  
Month to date cooling degree days 0 0  
Year to date cooling degree days 0 0  
Moisture  
Dew Point 8 °F    
Average Humidity 83    
Maximum Humidity 92    
Minimum Humidity 73    
Precipitation  
Precipitation 0.20 in 0.02 in 0.20 in (2013)
Month to date precipitation 0.43 0.34  
Year to date precipitation 1.10 0.96  
Sea Level Pressure  
Sea Level Pressure 30.20 in    
Wind  
Wind Speed 8 mph (NW)    
Max Wind Speed 18 mph    
Max Gust Speed 24 mph    
Visibility 3 miles    
Events Snow    
T = Trace of Precipitation, MM = Missing Value Source: NWS Daily Summary

Daily Weather History Graph

Daily Weather History Graph

Search for Another Location

Airport or City:

Trip Planner

Search our weather history database for the weather conditions in past years. The results will help you decide how hot, cold, wet, or windy it might be!

Date:

Astronomy

Feb. 15, 2013 Rise Set
Actual Time 6:56 AM MST 5:42 PM MST
Civil Twilight 6:29 AM MST 6:10 PM MST
Nautical Twilight 5:57 AM MST 6:41 PM MST
Astronomical Twilight 5:26 AM MST 7:12 PM MST
Moon 9:37 AM MST (2/15) 11:43 PM MST (2/15)
Length of Visible Light 11h 40m
Length of Day
10h 46m
Waxing Crescent, 31% of the Moon is Illuminated
Feb 15
Waxing Crescent
Feb 17
First Quarter
Feb 25
Full
Mar 4
Last Quarter
Mar 11
New

Hourly Weather History & Observations

Time (MST) Temp. Windchill Dew Point Humidity Pressure Visibility Wind Dir Wind Speed Gust Speed Precip Events Conditions
12:06 AM 12.2 °F 2.9 °F 8.6 °F 85% 30.12 in 1.5 mi NNW 5.8 mph - 0.00 in Snow Light Snow
12:16 AM 12.2 °F 0.7 °F 8.6 °F 85% 30.12 in 0.8 mi NNW 8.1 mph - 0.00 in Snow Light Snow
12:33 AM 12.2 °F 2.9 °F 10.4 °F 92% 30.11 in 0.8 mi NW 5.8 mph - 0.01 in Snow Light Snow
12:53 AM 12.0 °F 2.7 °F 10.0 °F 92% 30.11 in 0.8 mi NW 5.8 mph - 0.02 in Snow Light Snow
1:20 AM 12.2 °F -0.2 °F 8.6 °F 85% 30.11 in 1.0 mi NW 9.2 mph - 0.02 in Snow Light Snow
1:38 AM 12.2 °F -0.2 °F 8.6 °F 85% 30.11 in 2.0 mi NNW 9.2 mph - 0.02 in Snow Light Snow
1:51 AM 12.2 °F -0.2 °F 8.6 °F 85% 30.11 in 1.0 mi NW 9.2 mph - 0.02 in Snow Light Snow
1:53 AM 12.0 °F -0.4 °F 9.0 °F 88% 30.12 in 1.0 mi NW 9.2 mph - 0.02 in Snow Light Snow
1:55 AM 12.2 °F 0.7 °F 8.6 °F 85% 30.11 in 0.8 mi NW 8.1 mph - 0.00 in Snow Light Snow
2:06 AM 12.2 °F 0.7 °F 8.6 °F 85% 30.12 in 1.0 mi NW 8.1 mph - 0.01 in Snow Light Snow
2:15 AM 12.2 °F 0.7 °F 8.6 °F 85% 30.12 in 0.8 mi NW 8.1 mph - 0.01 in Snow Light Snow
2:40 AM 12.2 °F 4.3 °F 8.6 °F 85% 30.12 in 1.0 mi NNW 4.6 mph - 0.02 in Snow Light Snow
2:50 AM 12.2 °F - 8.6 °F 85% 30.12 in 0.8 mi Calm Calm - 0.02 in Snow Light Snow
2:53 AM 12.0 °F - 9.0 °F 88% 30.14 in 0.8 mi Calm Calm - 0.03 in Snow Light Snow
2:58 AM 12.2 °F 6.1 °F 8.6 °F 85% 30.12 in 1.0 mi NW 3.5 mph - 0.00 in Snow Light Snow
3:53 AM 10.9 °F 0.2 °F 7.0 °F 84% 30.13 in 1.2 mi WNW 6.9 mph - 0.01 in Snow Light Snow
4:11 AM 10.4 °F -3.3 °F 6.8 °F 85% 30.11 in 2.5 mi WNW 10.4 mph - 0.00 in Snow Light Snow
4:22 AM 10.4 °F -4.1 °F 6.8 °F 85% 30.11 in 1.0 mi WNW 11.5 mph 19.6 mph 0.00 in Snow Light Snow
4:35 AM 10.4 °F 0.8 °F 6.8 °F 85% 30.12 in 1.0 mi NW 5.8 mph - 0.01 in Snow Light Snow
4:53 AM 10.9 °F 0.2 °F 7.0 °F 84% 30.16 in 1.5 mi WNW 6.9 mph - 0.01 in Snow Light Snow
5:00 AM 10.4 °F -0.4 °F 6.8 °F 85% 30.12 in 2.0 mi WNW 6.9 mph - 0.00 in Snow Light Snow
5:34 AM 10.4 °F 4.0 °F 6.8 °F 85% 30.12 in 1.5 mi NW 3.5 mph - 0.01 in Snow Light Snow
5:50 AM 10.4 °F 4.0 °F 6.8 °F 85% 30.13 in 2.5 mi NW 3.5 mph - 0.01 in Snow Light Snow
5:53 AM 10.0 °F 3.6 °F 7.0 °F 87% 30.19 in 2.5 mi NW 3.5 mph - 0.01 in Snow Light Snow
6:10 AM 10.4 °F 2.2 °F 6.8 °F 85% 30.14 in 4.0 mi North 4.6 mph - 0.00 in Snow Light Snow
6:34 AM 10.4 °F - 6.8 °F 85% 30.14 in 2.0 mi Calm Calm - 0.00 in Snow Light Snow
6:41 AM 10.4 °F - 6.8 °F 85% 30.14 in 1.8 mi Calm Calm - 0.00 in Snow Light Snow
6:53 AM 10.9 °F - 7.0 °F 84% 30.20 in 1.8 mi Calm Calm - 0.00 in Snow Light Snow
7:22 AM 10.4 °F 2.2 °F 6.8 °F 85% 30.14 in 0.8 mi North 4.6 mph - 0.01 in Snow Light Snow
7:45 AM 10.4 °F 2.2 °F 8.6 °F 92% 30.15 in 0.8 mi North 4.6 mph - 0.01 in Snow Light Snow
7:53 AM 10.9 °F 2.9 °F 8.1 °F 88% 30.23 in 1.0 mi NNW 4.6 mph - 0.01 in Snow Light Snow
8:01 AM 10.4 °F 2.2 °F 8.6 °F 92% 30.16 in 0.8 mi NNW 4.6 mph - 0.00 in Snow Light Snow
8:53 AM 12.0 °F 1.5 °F 8.1 °F 84% 30.25 in 0.8 mi WNW 6.9 mph - 0.01 in Snow Light Snow
9:00 AM 12.2 °F -0.2 °F 8.6 °F 85% 30.18 in 1.0 mi NW 9.2 mph - 0.00 in Snow Light Snow
9:13 AM 12.2 °F 0.7 °F 8.6 °F 85% 30.17 in 0.8 mi WNW 8.1 mph - 0.01 in Snow Light Snow
9:28 AM 12.2 °F 0.7 °F 8.6 °F 85% 30.18 in 1.0 mi NW 8.1 mph - 0.01 in Snow Light Snow
9:53 AM 12.9 °F 0.7 °F 8.1 °F 81% 30.25 in 1.5 mi WNW 9.2 mph - 0.01 in Snow Light Snow
10:53 AM 14.0 °F -0.8 °F 7.0 °F 74% 30.25 in 2.5 mi NW 13.8 mph - 0.00 in Snow Light Snow
11:02 AM 14.0 °F -2.5 °F 8.6 °F 79% 30.19 in 1.5 mi WNW 17.3 mph 24.2 mph 0.00 in Snow Light Snow
11:13 AM 15.8 °F 0.3 °F 6.8 °F 68% 30.19 in 2.5 mi WNW 16.1 mph 23.0 mph 0.00 in Snow Light Snow
11:22 AM 14.0 °F -0.2 °F 8.6 °F 79% 30.20 in 1.0 mi WNW 12.7 mph 23.0 mph 0.00 in Snow Light Snow
11:49 AM 15.8 °F 0.9 °F 8.6 °F 73% 30.20 in 2.0 mi WNW 15.0 mph - 0.01 in Snow Light Snow
11:53 AM 15.1 °F -1.1 °F 8.1 °F 74% 30.25 in 1.8 mi WNW 17.3 mph - 0.01 in Snow Light Snow
12:26 PM 15.8 °F 0.9 °F 8.6 °F 73% 30.20 in 1.2 mi WNW 15.0 mph - 0.05 in Snow Light Snow
12:42 PM 15.8 °F 1.4 °F 8.6 °F 73% 30.20 in 2.5 mi West 13.8 mph - 0.05 in Snow Light Snow
12:50 PM 14.0 °F 0.5 °F 8.6 °F 79% 30.20 in 1.0 mi West 11.5 mph - 0.05 in Snow Light Snow
12:53 PM 14.0 °F 0.5 °F 9.0 °F 80% 30.27 in 0.8 mi WNW 11.5 mph - 0.05 in Snow Light Snow
1:05 PM 15.8 °F 8.6 °F 10.4 °F 79% 30.20 in 1.2 mi NW 4.6 mph - 0.00 in Snow Light Snow
1:14 PM 15.8 °F 2.7 °F 6.8 °F 68% 30.20 in 3.0 mi WNW 11.5 mph 23.0 mph 0.00 in Snow Light Snow
1:31 PM 15.8 °F 4.2 °F 8.6 °F 73% 30.20 in 1.8 mi NW 9.2 mph - 0.00 in Snow Light Snow
1:53 PM 16.0 °F 2.9 °F 10.0 °F 77% 30.26 in 1.2 mi NNW 11.5 mph 17.3 mph 0.01 in Snow Light Snow
1:57 PM 15.8 °F 2.7 °F 10.4 °F 79% 30.21 in 0.8 mi NNW 11.5 mph - 0.00 in Snow Light Snow
2:02 PM 15.8 °F 5.1 °F 10.4 °F 79% 30.21 in 1.0 mi NW 8.1 mph 17.3 mph 0.00 in Snow Light Snow
2:08 PM 15.8 °F 4.2 °F 10.4 °F 79% 30.21 in 3.0 mi North 9.2 mph - 0.00 in Snow Light Snow
2:12 PM 15.8 °F 2.7 °F 8.6 °F 73% 30.22 in 1.8 mi NNW 11.5 mph - 0.00 in Snow Light Snow
2:25 PM 15.8 °F 6.1 °F 8.6 °F 73% 30.21 in 2.0 mi NNW 6.9 mph - 0.00 in Snow Light Snow
2:42 PM 15.8 °F 4.2 °F 8.6 °F 73% 30.22 in 1.2 mi WNW 9.2 mph - 0.00 in Snow Light Snow
2:53 PM 16.0 °F 5.3 °F 10.0 °F 77% 30.27 in 2.0 mi WNW 8.1 mph - 0.00 in Snow Light Snow
3:05 PM 15.8 °F 5.1 °F 8.6 °F 73% 30.22 in 7.0 mi WNW 8.1 mph - 0.00 in Snow Light Snow
3:13 PM 17.6 °F 9.3 °F 10.4 °F 73% 30.23 in 1.8 mi NNW 5.8 mph - 0.00 in Snow Light Snow
3:35 PM 15.8 °F 5.1 °F 8.6 °F 73% 30.23 in 3.0 mi NNW 8.1 mph - 0.00 in Snow Light Snow
3:53 PM 16.0 °F 2.9 °F 8.1 °F 71% 30.29 in 9.0 mi WNW 11.5 mph - 0.00 in   Overcast
4:53 PM 16.0 °F 1.7 °F 7.0 °F 68% 30.32 in 7.0 mi NNW 13.8 mph - 0.00 in Snow Light Snow
5:05 PM 15.8 °F 2.7 °F 6.8 °F 68% 30.26 in 6.0 mi NW 11.5 mph 19.6 mph 0.00 in Snow Light Snow
5:53 PM 14.0 °F 5.1 °F 7.0 °F 74% 30.36 in 7.0 mi NNW 5.8 mph - 0.00 in   Overcast
6:53 PM 12.0 °F 4.1 °F 7.0 °F 80% 30.39 in 9.0 mi North 4.6 mph - 0.00 in   Overcast
7:53 PM 12.0 °F 0.5 °F 7.0 °F 80% 30.40 in 5.0 mi North 8.1 mph - 0.00 in Snow Light Snow
8:29 PM 8.6 °F -2.6 °F 3.2 °F 79% 30.31 in 10.0 mi NE 6.9 mph - 0.00 in   Scattered Clouds
8:53 PM 6.1 °F -4.3 °F 1.0 °F 80% 30.43 in 10.0 mi NE 5.8 mph - 0.00 in   Partly Cloudy
9:53 PM 3.9 °F -10.4 °F 1.0 °F 88% 30.44 in 10.0 mi NE 9.2 mph - N/A   Partly Cloudy
10:53 PM 3.9 °F -10.4 °F 1.0 °F 88% 30.45 in 10.0 mi NNE 9.2 mph - N/A   Clear
11:53 PM 3.9 °F -13.7 °F -0.0 °F 84% 30.42 in 10.0 mi NE 13.8 mph - N/A   Clear